sat.trackr.live / text

‹ back to catalog

STARLINK-37000

NORAD 68063 · 2026-041Z

PAYLOAD ACTIVE UNKNOWN

§ Identity

Operator
Country
US
Launch date
2026-03-02
Launch site
AFETR
Launch vehicle
Mass (kg)
RCS (m²)

Purposes: comms

External: N2YO · Heavens-Above · Gunter

§ Orbital elements

Epoch: 2026-05-25T03:24:27.688896Z

Period
93.85 min
Inclination
53.1600°
Eccentricity
0.0001062
Mean motion
15.34400105 rev/d
Perigee alt
462.0 km
Apogee alt
463.4 km
Semi-major
6,840.8 km
B*
7.4354e-4
RAAN
53.3354°
Arg perigee
78.2164°
Mean anomaly
281.8957°
Rev number
1,311

§ Raw data

STARLINK-370001 68063U 26041Z   26145.14198714  .00024829  00000+0  74354-3 0  99992 68063  53.1600  53.3354 0001062  78.2164 281.8957 15.34400105 13119

JSON: /api/v1/satellites/68063 · /tle

For live sub-satellite position, see the globe view (requires WebGL).

§ Visibility from observer

Set your observer location to see the next 7 days of passes ≥ 10°. The values pass through the URL so the page stays shareable.

No JS? Fill the form by hand. The geolocation button needs JavaScript.